Meteo Giornale » Osservazioni meteo Corea del Sud » Yangsu-Ri

ore: 03:30 - Osservazioni Meteo Yangsu-Ri
Lat. 37° 36' N Lon. 127° 21' E Alt. 34 metri s.l.m.

coperto

22 °C

Coperto

Temp. 24 Ore

22 °C

24 °C

Nord

1.8 Km/h

Dew point 22 °C

Umidità 100 %

Visibilità  8 Km

Il sole sorge alle ore 06:01

Il sole tramonta alle ore 18:59

Data e Ora Cielo e Fenomeni T °C DP °C Um. % Pres. hPa Vis. km Vento km/h
Oggi h: 03:30 coperto Coperto 22 22 100 1011 8 N 1.8
Oggi h: 03:20 coperto Coperto 22 22 100 1011 5 N 1.8
Oggi h: 03:10 nuvoloso_piovaschi Pioggia Foschia 22 22 100 1011 4 N 1.8
Oggi h: 03:00 nuvoloso_piovaschi Pioggia Foschia 22 22 100 1011 3 N 1.8
Oggi h: 02:50 nuvoloso_piovaschi Pioggia Foschia 22 22 100 1011 3 N 0
Oggi h: 02:40 foschia Foschia 22 22 100 1011 3 N 1.8
Oggi h: 02:30 foschia Foschia 22 22 100 1011 3 N 1.8
Oggi h: 02:20 foschia Foschia 22 22 100 1011 3 N 1.8
Oggi h: 02:10 coperto Coperto 22 22 100 1011 6 N 1.8
Oggi h: 02:00 coperto Coperto 22 22 100 1011 6 N 0
Oggi h: 01:50 foschia Foschia 22 22 100 1011 5 N 3.7
Oggi h: 01:40 nuvoloso_piovaschi Pioggia Foschia 22 22 100 1011 4 N 1.8
Oggi h: 01:30 coperto_pioggia Pioviggine Foschia 22 22 100 1011 3 N 1.8
Oggi h: 01:20 foschia Foschia 22 22 100 1011 4 N 1.8
Oggi h: 01:10 foschia Foschia 22 22 100 1011 4 N 1.8
Oggi h: 01:00 coperto Coperto 22 22 100 1011 6 N 1.8
Oggi h: 00:50 coperto Coperto 22 22 100 1012 9 N 1.8
Oggi h: 00:40 coperto Coperto 22 22 100 1012 9 N 1.8
Oggi h: 00:30 coperto Coperto 22 22 100 1012 10 N 1.8
Oggi h: 00:20 coperto Coperto 22 22 100 1012 10 N 1.8
Oggi h: 00:10 coperto Coperto 22 22 100 1011 6 N 1.8
Oggi h: 00:00 coperto Coperto 22 22 100 1012 6 N 1.8
Ieri h: 23:50 coperto Coperto 22 22 100 1011 5 N 3.7
Ieri h: 23:40 coperto Coperto 22 22 100 1011 8 N 1.8
Ieri h: 23:30 coperto Coperto 22 22 100 1011 10 N 1.8
Ieri h: 23:20 coperto Coperto 22 22 100 1011 10 N 1.8
Ieri h: 23:10 coperto Coperto 22 22 100 1011 10 N 5.5
Ieri h: 23:00 coperto Coperto 22 22 100 1011 10 N 3.7
Ieri h: 22:50 coperto Coperto 22 22 100 1011 10 N 1.8
Ieri h: 22:40 coperto Coperto 22 22 100 1011 10 N 3.7
Ieri h: 22:30 coperto Coperto 22 22 100 1011 10 N 1.8
Ieri h: 22:20 coperto Coperto 22 22 100 1011 10 N 1.8
Ieri h: 22:10 coperto Coperto 22 22 100 1011 10 N 1.8
Ieri h: 22:00 coperto_pioggia Pioviggine 22 22 100 1011 6 N 1.8
Ieri h: 21:50 coperto_pioggia Pioviggine 22 22 100 1011 5 N 1.8
Ieri h: 21:40 coperto Coperto 22 22 100 1011 10 N 1.8
Ieri h: 21:30 coperto Coperto 22 22 100 1012 10 N 1.8
Ieri h: 21:20 coperto Coperto 22 22 100 1011 10 N 3.7
Ieri h: 21:10 coperto Coperto 22 22 100 1012 10 N 3.7
Ieri h: 21:00 coperto Coperto 22 22 100 1011 10 N 3.7
Ieri h: 20:50 coperto Coperto 22 22 100 1011 10 N 3.7
Ieri h: 20:40 coperto Coperto 22 22 100 1011 10 N 3.7
Ieri h: 20:30 coperto Coperto 22 22 100 1011 10 N 3.7
Ieri h: 20:20 coperto Coperto 22 22 100 1011 10 N 1.8
Ieri h: 20:10 nuvoloso_piovaschi Pioggia 22 22 100 1011 9 N 3.7
Ieri h: 20:00 nuvoloso_piovaschi Pioggia 22 21 94 1011 6 N 1.8
Ieri h: 19:50 nuvoloso_piovaschi Pioggia 22 21 94 1011 6 N 3.7
Ieri h: 19:40 coperto Coperto 22 21 94 1011 10 N 5.5
Ieri h: 19:30 coperto Coperto 22 22 100 1010 10 N 3.7
Ieri h: 19:20 coperto_pioggia Pioviggine 22 22 100 1010 8 N 3.7
Ieri h: 19:10 coperto_pioggia Pioviggine 22 22 100 1010 8 N 1.8
Ieri h: 19:00 coperto Coperto 22 22 100 1010 10 N 1.8
Ieri h: 18:50 coperto Coperto 22 22 100 1010 10 N 1.8
Ieri h: 18:40 coperto Coperto 22 22 100 1010 10 N 1.8
Ieri h: 18:30 coperto Coperto 22 22 100 1010 10 N 1.8
Ieri h: 18:20 coperto Coperto 22 22 100 1010 10 N 1.8
Ieri h: 18:10 coperto Coperto 22 22 100 1010 10 N 1.8
Ieri h: 18:00 coperto Coperto 22 22 100 1010 10 N 1.8
Ieri h: 17:50 coperto Coperto 22 21 94 1010 10 N 3.7
Ieri h: 17:40 coperto Coperto 22 22 100 1010 10 N 1.8
Ieri h: 17:30 coperto Coperto 22 21 94 1011 10 N 1.8
Ieri h: 17:20 coperto Coperto 22 21 94 1011 10 N 1.8
Ieri h: 17:10 coperto Coperto 22 21 94 1011 10 N 1.8
Ieri h: 17:00 nuvoloso_piovaschi Pioggia 22 21 94 1011 9 N 1.8
Ieri h: 16:50 coperto Coperto 22 21 94 1011 10 N 1.8
Ieri h: 16:40 coperto Coperto 23 22 94 1011 10 N 1.8
Ieri h: 16:30 coperto Coperto 23 21 88 1011 10 N 1.8
Ieri h: 16:20 coperto Coperto 23 22 94 1011 10 N 1.8
Ieri h: 16:10 coperto Coperto 23 22 94 1011 10 N 1.8
Ieri h: 16:00 molto_nuvoloso Molto Nuvoloso 23 21 88 1011 10 N 5.5
Ieri h: 15:50 molto_nuvoloso Molto Nuvoloso 23 21 88 1011 10 N 5.5
Ieri h: 15:40 molto_nuvoloso Molto Nuvoloso 23 22 94 1011 10 N 5.5
Ieri h: 15:30 molto_nuvoloso Molto Nuvoloso 23 21 88 1011 10 S/SO 7.4
Ieri h: 15:20 coperto Coperto 23 22 94 1011 10 N 5.5
Ieri h: 15:10 coperto Coperto 23 22 94 1011 10 S/SO 9.3
Ieri h: 15:00 molto_nuvoloso Molto Nuvoloso 24 22 88 1011 10 S/SO 7.4
Ieri h: 14:50 molto_nuvoloso Molto Nuvoloso 24 23 94 1010 10 N 1.8
Ieri h: 14:40 molto_nuvoloso Molto Nuvoloso 24 23 94 1010 10 N 1.8
Ieri h: 14:30 molto_nuvoloso Molto Nuvoloso 24 23 94 1010 10 N 1.8
Ieri h: 14:20 molto_nuvoloso Molto Nuvoloso 24 23 94 1010 10 N 1.8
Ieri h: 14:10 molto_nuvoloso Molto Nuvoloso 23 23 100 1011 10 N 3.7
Ieri h: 14:00 molto_nuvoloso Molto Nuvoloso 23 23 100 1011 10 N 5.5
Ieri h: 13:50 molto_nuvoloso Molto Nuvoloso 23 23 100 1010 10 N 3.7
Ieri h: 13:40 molto_nuvoloso Molto Nuvoloso 23 23 100 1010 10 N 1.8
Ieri h: 13:30 molto_nuvoloso Molto Nuvoloso 23 23 100 1010 10 S 7.4
Ieri h: 13:20 molto_nuvoloso Molto Nuvoloso 23 22 94 1010 10 N 3.7
Ieri h: 13:10 molto_nuvoloso Molto Nuvoloso 23 23 100 1011 10 N/NE 7.4
Ieri h: 13:00 coperto Coperto 23 23 100 1011 10 N 5.5
Ieri h: 12:50 coperto Coperto 23 23 100 1010 10 N 3.7
Ieri h: 12:40 coperto Coperto 23 23 100 1010 10 N 5.5
Ieri h: 12:30 coperto Coperto 23 23 100 1011 10 N 3.7
Ieri h: 12:20 molto_nuvoloso Molto Nuvoloso 23 23 100 1011 10 N 1.8
Ieri h: 12:10 molto_nuvoloso Molto Nuvoloso 23 23 100 1011 10 N 1.8
Ieri h: 12:00 molto_nuvoloso Molto Nuvoloso 23 23 100 1011 10 N 1.8
Ieri h: 11:50 coperto Coperto 23 23 100 1010 10 N 3.7
Ieri h: 11:40 coperto Coperto 23 23 100 1011 10 N 1.8
Ieri h: 11:30 coperto Coperto 23 23 100 1011 10 N 1.8
Ieri h: 11:20 coperto_pioggia Pioggia 23 23 100 1011 9 N 5.5
Ieri h: 11:10 coperto_pioggia Pioggia 23 23 100 1011 6 N 3.7
Ieri h: 11:00 coperto_pioggia Pioggia 23 23 100 1012 6 N 3.7
Ieri h: 10:50 coperto_pioggia Pioggia 23 23 100 1012 5 N 1.8
Ieri h: 10:40 coperto_pioggia Pioggia 23 23 100 1011 3 N 0
Ieri h: 10:30 coperto_pioggia Pioggia 23 23 100 1011 6 N 1.8
Ieri h: 10:20 coperto Coperto 23 23 100 1012 10 N 1.8
Ieri h: 10:10 coperto Coperto 23 23 100 1011 10 N 3.7
Ieri h: 10:00 coperto Coperto 23 23 100 1011 10 N 3.7
Ieri h: 09:50 coperto_pioggia Pioggia 23 23 100 1011 9 N 3.7
Ieri h: 09:40 coperto_pioggia Pioggia 23 23 100 1011 6 N 3.7
Ieri h: 09:30 coperto_pioggia Pioggia 23 23 100 1012 9 N 0
Ieri h: 09:20 molto_nuvoloso Molto Nuvoloso 23 23 100 1012 10 N 1.8
Ieri h: 09:10 molto_nuvoloso Molto Nuvoloso 23 23 100 1012 10 N 1.8
Ieri h: 09:00 molto_nuvoloso Molto Nuvoloso 23 23 100 1011 10 N 3.7
Ieri h: 08:50 coperto Coperto 23 23 100 1011 10 N 1.8
Ieri h: 08:40 molto_nuvoloso Molto Nuvoloso 23 23 100 1011 10 N 3.7
Ieri h: 08:30 molto_nuvoloso Molto Nuvoloso 23 23 100 1011 10 N 3.7
Ieri h: 08:20 molto_nuvoloso Molto Nuvoloso 23 23 100 1011 10 N 3.7
Ieri h: 08:10 molto_nuvoloso Molto Nuvoloso 23 23 100 1011 10 N 1.8
Ieri h: 08:00 molto_nuvoloso Molto Nuvoloso 23 23 100 1011 10 N 1.8
Ieri h: 07:50 molto_nuvoloso Molto Nuvoloso 23 23 100 1011 10 N 1.8
Ieri h: 07:40 molto_nuvoloso Molto Nuvoloso 23 23 100 1011 10 N 1.8
Ieri h: 07:30 molto_nuvoloso Molto Nuvoloso 23 23 100 1011 10 N 3.7
Ieri h: 07:20 molto_nuvoloso Molto Nuvoloso 23 23 100 1011 10 N 1.8
Ieri h: 07:10 coperto Coperto 23 23 100 1011 10 N 1.8
Ieri h: 07:00 coperto Coperto 23 23 100 1011 10 N 5.5
Ieri h: 06:50 coperto Coperto 23 23 100 1011 10 N 1.8
Ieri h: 06:40 coperto Coperto 23 23 100 1011 10 N 1.8
Ieri h: 06:30 coperto Coperto 23 23 100 1011 10 N 1.8
Ieri h: 06:20 coperto Coperto 23 23 100 1011 10 N 1.8
Ieri h: 06:10 coperto Coperto 23 23 100 1010 10 N 3.7
Ieri h: 06:00 coperto Coperto 23 23 100 1010 10 N 5.5
Ieri h: 05:50 coperto Coperto 23 23 100 1010 10 N 3.7
Ieri h: 05:40 coperto Coperto 23 23 100 1010 10 N 3.7
Ieri h: 05:20 coperto Coperto 23 23 100 1010 10 N 1.8
Ieri h: 05:10 coperto Coperto 23 23 100 1010 10 N 1.8
Ieri h: 05:00 coperto Coperto 23 23 100 1010 10 N 1.8
Ieri h: 04:50 coperto Coperto 23 23 100 1010 10 N 3.7
Ieri h: 04:40 coperto Coperto 23 23 100 1010 10 N 3.7
Ieri h: 04:30 coperto Coperto 23 23 100 1010 10 N 1.8
Ieri h: 04:20 coperto Coperto 23 23 100 1010 10 N 1.8
Ieri h: 04:10 coperto Coperto 23 23 100 1010 10 N 1.8
Ieri h: 04:00 coperto Coperto 23 23 100 1010 9 N 1.8
Ieri h: 03:50 coperto Coperto 23 23 100 1010 6 N 1.8
Ieri h: 03:40 coperto Coperto 23 23 100 1010 5 N 1.8
Previsioni Meteo per località vicine a Yangsu-Ri